{"data":{"norad_id":58242,"epoch":"2026-05-25T04:13:38.997984Z","epoch_age_seconds":59569,"freshness":"FRESH","line1":"1 58242U 23171N   26145.17614581 -.00000019  00000+0  88345-5 0  9999","line2":"2 58242  43.0037 213.1362 0001988 275.4319  84.6306 15.27588011141433","mean_motion":15.27588011,"eccentricity":0.0001988,"inclination_deg":43.0037,"raan_deg":213.1362,"arg_perigee_deg":275.4319,"mean_anomaly_deg":84.6306,"bstar":8.8345e-6,"rev_number":14143,"period_min":94.266254358552,"perigee_km":481.66110930141,"apogee_km":484.38910735568,"semimajor_km":6861.1621083285,"source":"CELESTRAK","updated_at":"2026-05-25T13:38:18.581686Z"}}